Weather History for KGNR - February, 2012

Change the Weather History Date:

Sunday, February 26, 2012

  Actual Average (KMLT) Record (KMLT)
Temperature  
Mean Temperature 14 °F 22 °F  
Max Temperature 19 °F 32 °F 50 °F (1931)
Min Temperature 8 °F 12 °F -18 °F (1910)
Degree Days  
Heating Degree Days 52 43  
Month to date heating degree days 1222  
Since 1 July heating degree days 5968  
Cooling Degree Days 0 0  
Month to date cooling degree days 0  
Year to date cooling degree days 0  
Moisture  
Dew Point 6 °F    
Average Humidity 71    
Maximum Humidity 84    
Minimum Humidity 55    
Precipitation  
Precipitation 0.00 in 0.10 in 1.95 in (1965)
Month to date precipitation 1.98  
Year to date precipitation 4.91  
Sea Level Pressure  
Sea Level Pressure 30.03 in    
Wind  
Wind Speed 14 mph (NW)    
Max Wind Speed 20 mph    
Max Gust Speed 36 mph    
T = Trace of Precipitation, MM = Missing Value Source: NWS Daily Summary

Daily Weather History Graph

Daily Weather History Graph

Search for Another Location

Airport or City:

Trip Planner

Search our weather history database for the weather conditions in past years. The results will help you decide how hot, cold, wet, or windy it might be!

Date:

Astronomy

Feb. 26, 2012 Rise Set
Actual Time 6:22 AM EST 5:20 PM EST
Civil Twilight 5:53 AM EST 5:50 PM EST
Nautical Twilight 5:18 AM EST 6:24 PM EST
Astronomical Twilight 4:44 AM EST 6:58 PM EST
Moon 7:59 AM EST (2/26) 10:33 PM EST (2/26)
Length of Visible Light 11h 57m
Length of Day
10h 57m
Waxing Crescent, 20% of the Moon is Illuminated
Feb 26
Waxing Crescent
Feb 29
First Quarter
Mar 8
Full
Mar 14
Last Quarter
Mar 22
New

Hourly Weather History & Observations

Time (EST) Temp. Windchill Dew Point Humidity Pressure Visibility Wind Dir Wind Speed Gust Speed Precip Events Conditions
12:56 AM 19.0 °F 3.2 °F 14.0 °F 81% 29.52 in - NW 19.6 mph 35.7 mph N/A   Unknown
1:56 AM 17.1 °F 2.5 °F 12.9 °F 84% 29.56 in - NW 15.0 mph 34.5 mph N/A   Unknown
2:56 AM 16.0 °F 1.7 °F 10.9 °F 81% 29.62 in - WNW 13.8 mph 32.2 mph N/A   Unknown
3:56 AM 14.0 °F -2.0 °F 9.0 °F 80% 29.70 in - WNW 16.1 mph 29.9 mph N/A   Unknown
4:56 AM 12.0 °F -4.0 °F 7.0 °F 80% 29.75 in - NW 15.0 mph 28.8 mph N/A   Unknown
5:56 AM 10.9 °F -4.1 °F 6.1 °F 81% 29.84 in - NW 12.7 mph 35.7 mph N/A   Unknown
6:56 AM 10.0 °F -5.2 °F 3.9 °F 76% 29.89 in - NW 12.7 mph 29.9 mph N/A   Unknown
7:56 AM 9.0 °F -8.5 °F 3.0 °F 77% 29.95 in - NW 16.1 mph 28.8 mph N/A   Unknown
8:56 AM 12.0 °F -5.6 °F 3.9 °F 70% 29.98 in - NW 18.4 mph 31.1 mph N/A   Unknown
9:56 AM 12.9 °F -3.4 °F 5.0 °F 71% 30.01 in - NW 16.1 mph 32.2 mph N/A   Unknown
10:56 AM 16.0 °F 2.3 °F 6.1 °F 65% 30.03 in - WNW 12.7 mph 26.5 mph N/A   Unknown
11:56 AM 17.1 °F 2.5 °F 7.0 °F 65% 30.04 in - NW 15.0 mph 28.8 mph N/A   Unknown
12:56 PM 18.0 °F 4.8 °F 6.1 °F 60% 30.06 in - NW 12.7 mph 26.5 mph N/A   Unknown
1:56 PM 19.9 °F 7.3 °F 6.1 °F 55% 30.08 in - WNW 12.7 mph 26.5 mph N/A   Unknown
2:56 PM 19.9 °F 8.6 °F 6.1 °F 55% 30.12 in - WNW 10.4 mph 26.5 mph N/A   Unknown
3:56 PM 18.0 °F 7.7 °F 7.0 °F 62% 30.15 in - NW 8.1 mph 23.0 mph N/A   Unknown
4:56 PM 16.0 °F 1.1 °F 3.9 °F 59% 30.22 in - NW 15.0 mph 27.6 mph N/A   Unknown
5:56 PM 12.9 °F -0.2 °F 3.9 °F 67% 30.25 in - NW 10.4 mph 21.9 mph N/A   Unknown
6:56 PM 10.9 °F 0.2 °F 3.0 °F 70% 30.29 in - Variable 6.9 mph 20.7 mph N/A   Unknown
7:56 PM 10.0 °F -3.7 °F 1.9 °F 70% 30.31 in - NW 10.4 mph 20.7 mph N/A   Unknown
8:56 PM 8.1 °F -2.0 °F 1.0 °F 73% 30.33 in - Variable 5.8 mph - N/A   Unknown
9:56 PM 9.0 °F -2.2 °F 1.9 °F 73% 30.35 in - Variable 6.9 mph - N/A   Unknown
10:56 PM 9.0 °F -3.2 °F 1.9 °F 73% 30.36 in - WNW 8.1 mph - N/A   Unknown
11:56 PM 8.1 °F -5.3 °F 1.9 °F 76% 30.35 in - NW 9.2 mph 17.3 mph N/A   Unknown